Location: Daytona Beach
(29.2106°N, 81.0231°W)
Time: 15:53:26
(UTC-04:00)

JUGNU - Visible Passes

Search period start: 19 September 2021 00:00
Search period end: 29 September 2021 00:00
Orbit: 836 x 864 km, 20.0° (Epoch: 19 September)

Date Brightness Start Highest point End Pass type
(mag) Time Alt. Az. Time Alt. Az. Time Alt. Az.
19 Sep ? 05:27:50 15° S 05:29:38 17° SSE 05:33:17 10° SE visible
20 Sep ? 05:13:42 18° S 05:14:21 18° SSE 05:18:16 10° ESE visible
21 Sep ? 04:59:32 20° SSE 04:59:32 20° SSE 05:03:12 10° ESE visible
21 Sep ? 06:42:31 10° SW 06:47:35 31° S 06:52:39 10° ESE visible
22 Sep ? 04:45:22 19° SE 04:45:22 19° SE 04:48:07 10° ESE visible
22 Sep ? 06:27:13 10° WSW 06:32:19 32° S 06:37:26 10° ESE visible
23 Sep ? 04:31:10 17° SE 04:31:10 17° SE 04:33:01 10° ESE visible
23 Sep ? 06:13:01 15° SW 06:17:03 32° S 06:22:12 10° ESE visible
24 Sep ? 04:16:59 13° ESE 04:16:59 13° ESE 04:17:53 10° ESE visible
24 Sep ? 05:58:49 21° SW 06:01:47 33° S 06:06:57 10° ESE visible
25 Sep ? 05:44:37 27° SW 05:46:31 33° S 05:51:42 10° ESE visible
26 Sep ? 05:30:26 32° SSW 05:31:16 33° S 05:36:27 10° ESE visible
27 Sep ? 05:16:15 33° S 05:16:15 33° S 05:21:11 10° ESE visible
28 Sep ? 05:02:04 29° SSE 05:02:04 29° SSE 05:05:55 10° ESE visible
28 Sep ? 06:44:39 10° WSW 06:49:16 24° SSW 06:53:52 10° SE visible
